This is the latest recevied weather packets stored in our database for station/object SV1TQE-1. If no packets are shown the sender has not sent any weather packets the latest 10 day(s).
| Time | Temp. | Humidity | Pressure | Rain* | Wind** | Luminosity | Snow |
|---|---|---|---|---|---|---|---|
| 1787527392 | 31.67° C | 49% | 1018.6 hPa | - | - | - | - |
| 1787526492 | 32.22° C | 48% | 1018.7 hPa | - | - | - | - |
| 1787525592 | 32.22° C | 48% | 1018.5 hPa | - | - | - | - |
| 1787524692 | 32.22° C | 48% | 1018.5 hPa | - | - | - | - |
| 1787523792 | 31.67° C | 48% | 1018.7 hPa | - | - | - | - |
| 1787522892 | 32.22° C | 48% | 1018.7 hPa | - | - | - | - |
| 1787521991 | 31.67° C | 48% | 1018.8 hPa | - | - | - | - |
| 1787520191 | 32.22° C | 47% | 1018.8 hPa | - | - | - | - |
| 1787519291 | 32.22° C | 49% | 1018.8 hPa | - | - | - | - |
| 1787518391 | 31.67° C | 50% | 1018.8 hPa | - | - | - | - |
| 1787516585 | 32.22° C | 51% | 1018.7 hPa | - | - | - | - |
| 1787515872 | 31.67° C | 54% | 1018.7 hPa | - | - | - | - |
| 1787514972 | 31.67° C | 52% | 1018.7 hPa | - | - | - | - |
| 1787514072 | 32.22° C | 54% | 1018.8 hPa | - | - | - | - |
| 1787513174 | 32.78° C | 51% | 1018.9 hPa | - | - | - | - |
| 1787512272 | 33.33° C | 47% | 1018.7 hPa | - | - | - | - |
| 1787511374 | 32.78° C | 46% | 1018.6 hPa | - | - | - | - |
| 1787510466 | 32.78° C | 45% | 1018.7 hPa | - | - | - | - |
| 1787509566 | 33.33° C | 42% | 1018.6 hPa | - | - | - | - |
| 1787508666 | 33.33° C | 40% | 1018.5 hPa | - | - | - | - |
| 1787507766 | 33.33° C | 40% | 1018.4 hPa | - | - | - | - |
| 1787506865 | 33.33° C | 42% | 1018.2 hPa | - | - | - | - |
| 1787505965 | 33.89° C | 42% | 1017.9 hPa | - | - | - | - |
| 1787505065 | 33.89° C | 41% | 1017.6 hPa | - | - | - | - |
| 1787504165 | 34.44° C | 40% | 1017.4 hPa | - | - | - | - |
* Rain since midnight (hover to see other rain measurements)
** Current wind speed in m/s (hover to see current wind gust speed)